This demonstration page uses our WeatherBlox Daily Observations layout. Learn more.

36.17497, -115.13722

Hourly Observations for March 6, 2018

Temp ( °F °C ) Dew Point ( °F °C ) Humidity (%) Winds ( mph kmh ) Pressure ( in mb ) Visibility ( mi km ) Precip ( " mm )
12:53 am 00:53 Clear 44 6.7 3 -16.1 18 18 NNW 8 13 30.27 1025 10 16.0934 0 0
1:53 am 01:53 Clear 47 8.3 -5 -20.6 11 11 N 10 17 30.25 1024 10 16.0934 0 0
2:53 am 02:53 Clear 46 7.8 -4 -20 12 12 WNW 3 6 30.26 1025 10 16.0934 0 0
3:53 am 03:53 Clear 45 7.2 -1 -18.3 14 14 NW 7 11 30.27 1025 10 16.0934 0 0
4:53 am 04:53 Clear 44 6.7 0 -17.8 16 16 NNW 12 19 30.28 1026 10 16.0934 0 0
5:53 am 05:53 Clear 42 5.6 2 -16.7 18 18 W 5 7 30.31 1027 10 16.0934 0 0
6:53 am 06:53 Sunny 44 6.7 4 -15.6 19 19 Calm 30.33 1027 10 16.0934 0 0
7:53 am 07:53 Sunny 48 8.9 4 -15.6 16 16 NNW 12 19 30.35 1028 10 16.0934 0 0
8:53 am 08:53 Sunny 52 11.1 4 -15.6 14 14 NNW 5 7 30.35 1028 10 16.0934 0 0
9:53 am 09:53 Sunny 55 12.8 3 -16.1 12 12 Calm 30.33 1027 10 16.0934 0 0
10:53 am 10:53 Sunny 57 13.9 0 -17.8 10 10 Calm 30.3 1026 10 16.0934 0 0
11:53 am 11:53 Sunny 60 15.6 -2 -18.9 8 8 VRB 3 6 30.27 1025 10 16.0934 0 0
12:53 pm 12:53 Sunny 61 16.1 -5 -20.6 6 6 SE 7 11 30.24 1024 10 16.0934 0 0
1:53 pm 13:53 Sunny 64 17.8 -11 -23.9 4 4 SE 12 19 30.2 1023 10 16.0934 0 0
2:53 pm 14:53 Sunny 64 17.8 -13 -25 4 4 SSE 6 9 30.18 1022 10 16.0934 0 0
3:53 pm 15:53 Sunny 65 18.3 -13 -25 4 4 SE 6 9 30.15 1021 10 16.0934 0 0
4:53 pm 16:53 Sunny 65 18.3 -18 -27.8 3 3 Calm 30.14 1021 10 16.0934 0 0
5:53 pm 17:53 Clear 63 17.2 -8 -22.2 5 5 WSW 5 7 30.16 1021 10 16.0934 0 0
6:53 pm 18:53 Clear 60 15.6 -4 -20 7 7 NW 6 9 30.16 1021 10 16.0934 0 0
7:53 pm 19:53 Clear 55 12.8 3 -16.1 12 12 NW 6 9 30.16 1022 10 16.0934 0 0
8:53 pm 20:53 Clear 50 10 4 -15.6 15 15 NW 7 11 30.18 1022 10 16.0934 0 0
9:53 pm 21:53 Clear 51 10.6 5 -15 15 15 WNW 8 13 30.19 1022 10 16.0934 0 0
10:53 pm 22:53 Clear 49 9.4 3 -16.1 15 15 Calm 30.18 1022 10 16.0934 0 0
11:53 pm 23:53 Clear 49 9.4 3 -16.1 15 15 Calm 30.19 1022 10 16.0934 0 0

Powered by AerisWeather